| time (UTC) | temp C | wind direction | speed KPH | gust KPH | rain 1hr cm | rain 24hr cm | rain mn cm | humidity % | barometer mb |
| 20260504081318 | 8 | 0.0 | 0.0 | 0.00 | 0.00 | 0.00 | 79 | 1015.9 | |
| 20260504080318 | 8 | 0.0 | 0.0 | 0.00 | 0.00 | 0.00 | 78 | 1016.0 | |
| 20260504070317 | 10 | 0.0 | 0.0 | 0.00 | 0.00 | 0.00 | 74 | 1016.5 | |
| 20260504050317 | 8 | 0.0 | 0.0 | 0.00 | 0.00 | 0.00 | 80 | 1017.2 | |
| 20260504045318 | 8 | 225 | 1.6 | 4.8 | 0.00 | 0.00 | 0.00 | 80 | 1017.1 |
| 20260504044317 | 8 | 0.0 | 0.0 | 0.00 | 0.00 | 0.00 | 80 | 1017.2 | |
| 20260504043357 | 9 | 0.0 | 0.0 | 0.00 | 0.00 | 0.00 | 79 | 1017.3 | |
| 20260504042317 | 9 | 0.0 | 0.0 | 0.00 | 0.00 | 0.00 | 78 | 1017.2 | |
| 20260504041317 | 10 | 0.0 | 0.0 | 0.00 | 0.00 | 0.00 | 76 | 1017.2 | |
| 20260504040317 | 10 | 0.0 | 0.0 | 0.00 | 0.00 | 0.00 | 74 | 1017.2 | |
| 20260504035317 | 10 | 0.0 | 0.0 | 0.00 | 0.00 | 0.00 | 73 | 1017.2 | |
| 20260504034316 | 10 | 0.0 | 0.0 | 0.00 | 0.00 | 0.00 | 72 | 1017.2 | |
| 20260504033317 | 10 | 0.0 | 0.0 | 0.00 | 0.00 | 0.00 | 71 | 1017.4 | |
| 20260504032317 | 11 | 0.0 | 0.0 | 0.00 | 0.00 | 0.00 | 70 | 1017.4 | |
| 20260504031317 | 11 | 0.0 | 0.0 | 0.00 | 0.00 | 0.00 | 70 | 1017.5 | |
| 20260504030337 | 11 | 0.0 | 0.0 | 0.00 | 0.00 | 0.00 | 70 | 1017.6 | |
| 20260504025337 | 11 | 0.0 | 0.0 | 0.00 | 0.00 | 0.00 | 71 | 1017.5 | |
| 20260504024316 | 11 | 0.0 | 0.0 | 0.00 | 0.00 | 0.00 | 71 | 1017.5 | |
| 20260504023317 | 11 | 0.0 | 0.0 | 0.00 | 0.00 | 0.00 | 71 | 1017.6 | |
| 20260504022316 | 11 | 0.0 | 0.0 | 0.00 | 0.00 | 0.00 | 72 | 1017.4 | |
| 20260504021359 | 11 | 0.0 | 0.0 | 0.00 | 0.00 | 0.00 | 70 | 1017.5 | |
| 20260504020316 | 11 | 0.0 | 0.0 | 0.00 | 0.00 | 0.00 | 70 | 1017.4 | |
| 20260504015337 | 12 | 0.0 | 0.0 | 0.00 | 0.00 | 0.00 | 68 | 1017.3 | |
| 20260504014336 | 12 | 0.0 | 0.0 | 0.00 | 0.00 | 0.00 | 67 | 1017.2 | |
| 20260504013316 | 12 | 0.0 | 0.0 | 0.00 | 0.00 | 0.00 | 66 | 1017.1 | |
| 20260504012316 | 13 | 0.0 | 0.0 | 0.00 | 0.00 | 0.00 | 63 | 1017.2 | |
| 20260504011316 | 13 | 0.0 | 0.0 | 0.00 | 0.00 | 0.00 | 61 | 1017.0 | |
| 20260504010316 | 14 | 0.0 | 0.0 | 0.00 | 0.00 | 0.00 | 59 | 1016.9 | |
| 20260504005316 | 15 | 0.0 | 0.0 | 0.00 | 0.00 | 0.00 | 57 | 1016.8 | |
| 20260504004318 | 15 | 0.0 | 0.0 | 0.00 | 0.00 | 0.00 | 54 | 1016.7 | |
| 20260504003317 | 16 | 0.0 | 0.0 | 0.00 | 0.00 | 0.00 | 53 | 1016.7 | |
| 20260504002316 | 16 | 0.0 | 0.0 | 0.00 | 0.00 | 0.00 | 52 | 1016.8 | |
| 20260504001319 | 17 | 0.0 | 0.0 | 0.00 | 0.00 | 0.00 | 50 | 1016.8 | |
| 20260504000316 | 17 | 0.0 | 3.2 | 0.00 | 0.00 | 0.00 | 48 | 1016.9 | |
| 20260503235316 | 18 | 248 | 1.6 | 6.4 | 0.00 | 0.00 | 0.00 | 47 | 1016.7 |
| 20260503234318 | 18 | 0.0 | 1.6 | 0.00 | 0.00 | 0.00 | 47 | 1017.0 | |
| 20260503233318 | 18 | 293 | 1.6 | 3.2 | 0.00 | 0.00 | 0.00 | 48 | 1017.1 |
| 20260503232319 | 18 | 293 | 3.2 | 8.0 | 0.00 | 0.00 | 0.00 | 45 | 1017.2 |
| 20260503231319 | 18 | 248 | 1.6 | 3.2 | 0.00 | 0.00 | 0.00 | 45 | 1017.3 |
| 20260503230318 | 18 | 225 | 1.6 | 4.8 | 0.00 | 0.00 | 0.00 | 45 | 1017.3 |
| 20260503225318 | 18 | 270 | 3.2 | 3.2 | 0.00 | 0.00 | 0.00 | 47 | 1017.5 |
| 20260503224319 | 18 | 180 | 3.2 | 4.8 | 0.00 | 0.00 | 0.00 | 45 | 1017.5 |
| 20260503223317 | 19 | 270 | 8.0 | 14.5 | 0.00 | 0.00 | 0.00 | 45 | 1017.5 |
| 20260503222320 | 18 | 203 | 1.6 | 6.4 | 0.00 | 0.00 | 0.00 | 43 | 1017.5 |
| 20260503221317 | 19 | 225 | 8.0 | 14.5 | 0.00 | 0.00 | 0.00 | 43 | 1017.5 |
| 20260503220358 | 19 | 225 | 6.4 | 9.7 | 0.00 | 0.00 | 0.00 | 42 | 1017.6 |
| 20260503215319 | 19 | 338 | 3.2 | 6.4 | 0.00 | 0.00 | 0.00 | 41 | 1017.7 |
| 20260503214339 | 19 | 248 | 4.8 | 12.9 | 0.00 | 0.00 | 0.00 | 43 | 1017.7 |
| 20260503213318 | 19 | 203 | 11.3 | 20.9 | 0.00 | 0.00 | 0.00 | 41 | 1017.8 |
| 20260503212318 | 19 | 203 | 3.2 | 6.4 | 0.00 | 0.00 | 0.00 | 44 | 1018.0 |
| 20260503211318 | 19 | 180 | 9.7 | 17.7 | 0.00 | 0.00 | 0.00 | 42 | 1018.0 |
| 20260503210318 | 19 | 270 | 1.6 | 4.8 | 0.00 | 0.00 | 0.00 | 43 | 1018.1 |
| 20260503205317 | 19 | 0.0 | 1.6 | 0.00 | 0.00 | 0.00 | 43 | 1018.2 | |
| 20260503204317 | 18 | 225 | 6.4 | 14.5 | 0.00 | 0.00 | 0.00 | 44 | 1018.3 |
| 20260503203358 | 18 | 225 | 1.6 | 4.8 | 0.00 | 0.00 | 0.00 | 43 | 1018.7 |
| 20260503202317 | 18 | 203 | 1.6 | 4.8 | 0.00 | 0.00 | 0.00 | 45 | 1018.6 |
| 20260503201317 | 18 | 203 | 4.8 | 8.0 | 0.00 | 0.00 | 0.00 | 44 | 1018.9 |
| 20260503200337 | 18 | 203 | 4.8 | 6.4 | 0.00 | 0.00 | 0.00 | 42 | 1019.1 |
| 20260503195318 | 18 | 248 | 4.8 | 8.0 | 0.00 | 0.00 | 0.00 | 44 | 1019.4 |
| 20260503194317 | 18 | 203 | 4.8 | 9.7 | 0.00 | 0.00 | 0.00 | 44 | 1019.7 |
| 20260503193317 | 18 | 293 | 3.2 | 6.4 | 0.00 | 0.00 | 0.00 | 42 | 1019.7 |
| 20260503192317 | 18 | 180 | 4.8 | 9.7 | 0.00 | 0.00 | 0.00 | 42 | 1019.7 |
| 20260503191317 | 18 | 225 | 4.8 | 9.7 | 0.00 | 0.00 | 0.00 | 45 | 1020.2 |
| 20260503190317 | 17 | 203 | 6.4 | 11.3 | 0.00 | 0.00 | 0.00 | 42 | 1020.2 |
| 20260503185317 | 17 | 293 | 1.6 | 4.8 | 0.00 | 0.00 | 0.00 | 43 | 1020.4 |
| 20260503184357 | 17 | 270 | 4.8 | 9.7 | 0.00 | 0.00 | 0.00 | 45 | 1020.6 |
| 20260503183317 | 17 | 248 | 3.2 | 8.0 | 0.00 | 0.00 | 0.00 | 44 | 1020.6 |
| 20260503182317 | 17 | 0.0 | 1.6 | 0.00 | 0.00 | 0.00 | 43 | 1020.5 | |
| 20260503181337 | 17 | 203 | 8.0 | 14.5 | 0.00 | 0.00 | 0.00 | 47 | 1020.7 |
| 20260503180318 | 17 | 315 | 3.2 | 4.8 | 0.00 | 0.00 | 0.00 | 47 | 1020.7 |
| 20260503175318 | 16 | 0.0 | 3.2 | 0.00 | 0.00 | 0.00 | 46 | 1020.9 | |
| 20260503174337 | 16 | 113 | 1.6 | 6.4 | 0.00 | 0.00 | 0.00 | 51 | 1021.0 |
| 20260503173317 | 16 | 248 | 8.0 | 12.9 | 0.00 | 0.00 | 0.00 | 47 | 1021.2 |
| 20260503172317 | 16 | 270 | 6.4 | 11.3 | 0.00 | 0.00 | 0.00 | 48 | 1021.4 |
| 20260503171317 | 16 | 0.0 | 3.2 | 0.00 | 0.00 | 0.00 | 51 | 1021.4 | |
| 20260503170318 | 16 | 248 | 8.0 | 11.3 | 0.00 | 0.00 | 0.00 | 51 | 1021.5 |
| 20260503150317 | 13 | 0.0 | 3.2 | 0.00 | 0.00 | 0.00 | 53 | 1022.2 | |
| 20260503131316 | 10 | 68 | 1.6 | 4.8 | 0.00 | 0.00 | 0.00 | 82 | 1021.8 |
| 20260503130316 | 10 | 68 | 1.6 | 4.8 | 0.00 | 0.00 | 0.00 | 84 | 1021.8 |
| 20260503110318 | 3 | 0.0 | 0.0 | 0.00 | 0.00 | 0.00 | 91 | 1020.5 |